Weather History for KDIK - February, 2014

Change the Weather History Date:

Monday, February 10, 2014

  Actual Average Record
Temperature  
Mean Temperature -1 °F 19 °F  
Max Temperature 12 °F 30 °F 58 °F (1984)
Min Temperature -15 °F 9 °F -35 °F (1936)
Degree Days  
Heating Degree Days 66 46  
Month to date heating degree days 645 465  
Since 1 July heating degree days 5778 5512  
Cooling Degree Days 0 0  
Month to date cooling degree days 0 0  
Year to date cooling degree days 0 0  
Moisture  
Dew Point -6 °F    
Average Humidity 74    
Maximum Humidity 87    
Minimum Humidity 61    
Precipitation  
Precipitation 0.00 in 0.01 in 0.21 in (2004)
Month to date precipitation T 0.08  
Year to date precipitation 0.04 0.38  
Sea Level Pressure  
Sea Level Pressure 30.35 in    
Wind  
Wind Speed 11 mph (SSE)    
Max Wind Speed 17 mph    
Max Gust Speed 21 mph    
Visibility 10 miles    
Events      
T = Trace of Precipitation, MM = Missing Value Source: NWS Daily Summary

Daily Weather History Graph

Daily Weather History Graph

Search for Another Location

Airport or City:

Trip Planner

Search our weather history database for the weather conditions in past years. The results will help you decide how hot, cold, wet, or windy it might be!

Date:

Astronomy

Feb. 10, 2014 Rise Set
Actual Time 7:03 AM MST 5:08 PM MST
Civil Twilight 6:31 AM MST 5:40 PM MST
Nautical Twilight 5:55 AM MST 6:15 PM MST
Astronomical Twilight 5:20 AM MST 6:51 PM MST
Moon 1:33 PM MST (2/10) 4:04 AM MST (2/10)
Length of Visible Light 11h 08m
Length of Day
10h 05m
Waxing Gibbous, 85% of the Moon is Illuminated
Feb 10
Waxing Gibbous
Feb 14
Full
Feb 22
Last Quarter
Mar 1
New
Mar 8
First Quarter

Hourly Weather History & Observations

Time (MST) Temp. Windchill Dew Point Humidity Pressure Visibility Wind Dir Wind Speed Gust Speed Precip Events Conditions
12:56 AM -14.1 °F -28.3 °F -20.0 °F 75% 30.45 in 10.0 mi SSE 5.8 mph - N/A   Clear
1:56 AM -9.9 °F -23.4 °F -15.0 °F 78% 30.44 in 10.0 mi SSE 5.8 mph - N/A   Clear
2:56 AM -13.0 °F -25.1 °F -17.0 °F 82% 30.44 in 10.0 mi SSE 4.6 mph - N/A   Clear
3:56 AM -14.1 °F -31.3 °F -18.0 °F 82% 30.42 in 10.0 mi SSE 8.1 mph - N/A   Clear
4:56 AM -13.0 °F -25.1 °F -18.0 °F 78% 30.42 in 10.0 mi ESE 4.6 mph - N/A   Clear
5:56 AM -13.0 °F -27.0 °F -18.9 °F 75% 30.42 in 10.0 mi SSE 5.8 mph - N/A   Clear
6:56 AM -11.9 °F -27.3 °F -18.0 °F 74% 30.42 in 10.0 mi SSE 6.9 mph - N/A   Mostly Cloudy
7:56 AM -6.0 °F -18.6 °F -11.0 °F 79% 30.42 in 10.0 mi ESE 5.8 mph - N/A   Overcast
8:56 AM -0.9 °F -16.4 °F -6.0 °F 79% 30.41 in 10.0 mi SSE 9.2 mph - N/A   Overcast
9:56 AM 3.9 °F -12.2 °F -2.0 °F 76% 30.40 in 10.0 mi SSE 11.5 mph - N/A   Mostly Cloudy
10:56 AM 7.0 °F -9.1 °F -2.0 °F 67% 30.40 in 10.0 mi South 12.7 mph - N/A   Clear
11:56 AM 9.0 °F -5.9 °F -0.0 °F 67% 30.39 in 10.0 mi South 11.5 mph - N/A   Clear
12:56 PM 10.9 °F -5.9 °F 1.0 °F 64% 30.36 in 10.0 mi South 16.1 mph - N/A   Clear
1:56 PM 12.0 °F -2.7 °F 3.0 °F 67% 30.34 in 10.0 mi South 12.7 mph - N/A   Clear
2:56 PM 12.0 °F -4.0 °F 1.9 °F 64% 30.33 in 10.0 mi South 15.0 mph - N/A   Clear
3:56 PM 10.0 °F -5.9 °F 1.9 °F 70% 30.34 in 10.0 mi South 13.8 mph - N/A   Clear
4:56 PM 7.0 °F -9.1 °F -0.9 °F 70% 30.33 in 10.0 mi South 12.7 mph - N/A   Clear
5:56 PM 3.9 °F -13.0 °F -2.0 °F 76% 30.33 in 10.0 mi South 12.7 mph - N/A   Clear
6:56 PM 3.0 °F -14.8 °F -2.0 °F 80% 30.30 in 10.0 mi South 13.8 mph - N/A   Clear
7:56 PM 3.9 °F -14.3 °F -0.9 °F 80% 30.28 in 10.0 mi South 15.0 mph - N/A   Clear
8:56 PM 1.9 °F -15.5 °F -2.9 °F 80% 30.23 in 10.0 mi South 12.7 mph - N/A   Clear
9:56 PM 1.9 °F -14.7 °F -2.9 °F 80% 30.19 in 10.0 mi South 11.5 mph - N/A   Clear
10:56 PM 1.9 °F -16.9 °F -2.0 °F 83% 30.16 in 10.0 mi South 15.0 mph - N/A   Clear
11:56 PM 1.9 °F -14.7 °F -2.0 °F 83% 30.12 in 10.0 mi South 11.5 mph - N/A   Clear